Time,TemperatureF,DewpointF,PressureIn,WindDirection,WindDirectionDegrees,WindSpeedMPH,WindSpeedGustMPH,Humidity,HourlyPrecipIn,Conditions,Clouds,dailyrainin,SoftwareType,DateUTC
2013-02-15 00:04:00,41.5,31.8,28.70,ESE,116,3.1,10.1,68,0.00,,---,0.00,VWS V14.01,2013-02-15 08:04:00,
2013-02-15 00:09:00,41.4,31.6,28.70,East,96,7.6,7.6,68,0.00,,---,0.00,VWS V14.01,2013-02-15 08:09:00,
2013-02-15 00:14:00,41.5,31.8,28.70,SSE,160,4.0,8.1,68,0.00,,---,0.00,VWS V14.01,2013-02-15 08:14:00,
2013-02-15 00:19:00,41.5,31.4,28.70,ESE,105,3.1,6.3,67,0.00,,---,0.00,VWS V14.01,2013-02-15 08:19:00,
2013-02-15 00:25:00,41.5,31.0,28.70,SSE,157,5.8,8.1,66,0.00,,---,0.00,VWS V14.01,2013-02-15 08:25:00,
2013-02-15 00:30:00,41.5,30.7,28.70,ESE,122,4.9,4.9,65,0.00,,---,0.00,VWS V14.01,2013-02-15 08:30:00,
2013-02-15 00:35:00,41.5,30.3,28.70,SE,124,5.8,5.8,64,0.00,,---,0.00,VWS V14.01,2013-02-15 08:35:00,
2013-02-15 00:40:00,41.4,30.1,28.70,ESE,123,2.7,3.1,64,0.00,,---,0.00,VWS V14.01,2013-02-15 08:40:00,
2013-02-15 00:46:00,41.5,29.9,28.70,SE,126,3.6,7.6,63,0.00,,---,0.00,VWS V14.01,2013-02-15 08:46:00,
2013-02-15 00:51:00,41.2,28.8,28.70,SSE,152,5.4,5.8,61,0.00,,---,0.00,VWS V14.01,2013-02-15 08:51:00,
2013-02-15 00:56:00,41.2,29.2,28.70,ENE,69,2.7,4.9,62,0.00,,---,0.00,VWS V14.01,2013-02-15 08:56:00,
2013-02-15 01:02:00,41.2,29.2,28.70,East,92,3.1,3.6,62,0.00,,---,0.00,VWS V14.01,2013-02-15 09:02:00,
2013-02-15 01:07:00,41.2,29.2,28.70,SSE,150,2.7,8.3,62,0.00,,---,0.00,VWS V14.01,2013-02-15 09:07:00,
2013-02-15 01:12:00,41.0,29.0,28.70,East,83,5.4,6.3,62,0.00,,---,0.00,VWS V14.01,2013-02-15 09:12:00,
2013-02-15 01:17:00,40.6,28.6,28.70,SE,129,3.1,5.4,62,0.00,,---,0.00,VWS V14.01,2013-02-15 09:17:00,
2013-02-15 01:23:00,40.8,28.8,28.70,ENE,64,7.6,10.1,62,0.00,,---,0.00,VWS V14.01,2013-02-15 09:23:00,
2013-02-15 01:28:00,40.5,28.1,28.70,East,91,2.2,4.9,61,0.00,,---,0.00,VWS V14.01,2013-02-15 09:28:00,
2013-02-15 01:33:00,40.3,27.9,28.70,NE,46,3.1,4.9,61,0.00,,---,0.00,VWS V14.01,2013-02-15 09:33:00,
2013-02-15 01:38:00,40.5,28.1,28.70,SE,141,3.6,4.9,61,0.00,,---,0.00,VWS V14.01,2013-02-15 09:38:00,
2013-02-15 01:44:00,40.5,28.1,28.70,SSE,156,6.3,8.3,61,0.00,,---,0.00,VWS V14.01,2013-02-15 09:44:00,
2013-02-15 01:49:00,40.6,28.6,28.70,SSE,150,3.6,8.3,62,0.00,,---,0.00,VWS V14.01,2013-02-15 09:49:00,
2013-02-15 01:54:00,40.6,28.6,28.70,East,101,4.0,5.8,62,0.00,,---,0.00,VWS V14.01,2013-02-15 09:54:00,
2013-02-15 02:00:00,40.8,28.4,28.70,SE,132,5.4,6.3,61,0.00,,---,0.00,VWS V14.01,2013-02-15 10:00:00,
2013-02-15 02:05:00,40.8,28.0,28.70,ESE,104,6.3,8.1,60,0.00,,---,0.00,VWS V14.01,2013-02-15 10:05:00,
2013-02-15 02:10:00,41.0,27.8,28.67,ESE,119,4.0,8.3,59,0.00,,---,0.00,VWS V14.01,2013-02-15 10:10:00,
2013-02-15 02:15:00,41.0,27.0,28.67,SE,140,4.0,8.1,57,0.00,,---,0.00,VWS V14.01,2013-02-15 10:15:00,
2013-02-15 02:21:00,41.0,26.1,28.67,ENE,77,3.1,5.8,55,0.00,,---,0.00,VWS V14.01,2013-02-15 10:21:00,
2013-02-15 02:26:00,41.0,26.1,28.67,East,84,4.9,6.3,55,0.00,,---,0.00,VWS V14.01,2013-02-15 10:26:00,
2013-02-15 02:31:00,41.0,25.6,28.67,SE,126,4.0,5.4,54,0.00,,---,0.00,VWS V14.01,2013-02-15 10:31:00,
2013-02-15 02:36:00,41.0,25.6,28.67,ESE,117,4.0,8.3,54,0.00,,---,0.00,VWS V14.01,2013-02-15 10:36:00,
2013-02-15 02:42:00,41.2,25.8,28.67,SE,127,3.1,4.9,54,0.00,,---,0.00,VWS V14.01,2013-02-15 10:42:00,
2013-02-15 02:47:00,41.4,25.1,28.67,ESE,115,2.7,6.3,52,0.00,,---,0.00,VWS V14.01,2013-02-15 10:47:00,
2013-02-15 02:52:00,41.2,24.9,28.67,ESE,113,3.6,6.3,52,0.00,,---,0.00,VWS V14.01,2013-02-15 10:52:00,
2013-02-15 02:57:00,41.5,24.8,28.67,East,94,3.6,8.3,51,0.00,,---,0.00,VWS V14.01,2013-02-15 10:57:00,
2013-02-15 03:03:00,41.4,24.1,28.67,SSE,166,5.4,8.3,50,0.00,,---,0.00,VWS V14.01,2013-02-15 11:03:00,
2013-02-15 03:08:00,41.4,23.6,28.67,South,170,5.8,10.5,49,0.00,,---,0.00,VWS V14.01,2013-02-15 11:08:00,
2013-02-15 03:13:00,41.2,23.5,28.67,ESE,123,7.6,8.7,49,0.00,,---,0.00,VWS V14.01,2013-02-15 11:13:00,
2013-02-15 03:18:00,41.0,23.3,28.67,East,93,5.8,8.7,49,0.00,,---,0.00,VWS V14.01,2013-02-15 11:18:00,
2013-02-15 03:24:00,41.0,23.8,28.67,ESE,121,7.6,8.7,50,0.00,,---,0.00,VWS V14.01,2013-02-15 11:24:00,
2013-02-15 03:29:00,41.0,23.8,28.67,ENE,74,5.8,7.6,50,0.00,,---,0.00,VWS V14.01,2013-02-15 11:29:00,
2013-02-15 03:34:00,40.8,23.6,28.67,East,92,7.6,7.6,50,0.00,,---,0.00,VWS V14.01,2013-02-15 11:34:00,
2013-02-15 03:39:00,41.2,24.0,28.67,SE,139,4.9,6.3,50,0.00,,---,0.00,VWS V14.01,2013-02-15 11:39:00,
2013-02-15 03:45:00,41.0,23.8,28.67,East,101,5.4,6.3,50,0.00,,---,0.00,VWS V14.01,2013-02-15 11:45:00,
2013-02-15 03:50:00,41.0,23.8,28.67,SE,134,3.1,10.1,50,0.00,,---,0.00,VWS V14.01,2013-02-15 11:50:00,
2013-02-15 03:55:00,41.0,23.8,28.67,ESE,120,3.6,3.6,50,0.00,,---,0.00,VWS V14.01,2013-02-15 11:55:00,
2013-02-15 04:00:00,40.8,23.1,28.67,ESE,110,8.1,8.3,49,0.00,,---,0.00,VWS V14.01,2013-02-15 12:00:00,
2013-02-15 04:06:00,40.8,23.1,28.67,ENE,76,2.7,4.9,49,0.00,,---,0.00,VWS V14.01,2013-02-15 12:06:00,
2013-02-15 04:11:00,40.6,23.0,28.64,SE,130,2.7,4.0,49,0.00,,---,0.00,VWS V14.01,2013-02-15 12:11:00,
2013-02-15 04:16:00,40.5,23.3,28.64,ESE,117,4.0,6.3,50,0.00,,---,0.00,VWS V14.01,2013-02-15 12:16:00,
2013-02-15 04:21:00,40.5,23.3,28.64,SE,125,4.9,6.3,50,0.00,,---,0.00,VWS V14.01,2013-02-15 12:21:00,
2013-02-15 04:27:00,40.6,23.5,28.64,East,86,4.9,10.1,50,0.00,,---,0.00,VWS V14.01,2013-02-15 12:27:00,
2013-02-15 04:32:00,40.5,23.3,28.64,South,177,6.3,6.3,50,0.00,,---,0.00,VWS V14.01,2013-02-15 12:32:00,
2013-02-15 04:37:00,40.5,23.3,28.64,SSE,149,5.4,7.6,50,0.00,,---,0.00,VWS V14.01,2013-02-15 12:37:00,
2013-02-15 04:42:00,40.5,23.3,28.64,SE,133,3.1,8.1,50,0.00,,---,0.00,VWS V14.01,2013-02-15 12:42:00,
2013-02-15 04:48:00,40.8,23.6,28.64,East,79,5.8,6.3,50,0.00,,---,0.00,VWS V14.01,2013-02-15 12:48:00,
2013-02-15 04:53:00,41.2,23.0,28.64,ESE,119,5.4,7.6,48,0.00,,---,0.00,VWS V14.01,2013-02-15 12:53:00,
2013-02-15 04:58:00,41.4,22.1,28.64,SE,138,3.1,7.6,46,0.00,,---,0.00,VWS V14.01,2013-02-15 12:58:00,
2013-02-15 05:03:00,41.4,21.6,28.64,ESE,113,5.8,8.7,45,0.00,,---,0.00,VWS V14.01,2013-02-15 13:03:00,
2013-02-15 05:09:00,41.4,21.1,28.64,South,178,3.6,8.3,44,0.00,,---,0.00,VWS V14.01,2013-02-15 13:09:00,
2013-02-15 05:14:00,41.4,21.1,28.64,ESE,120,8.3,10.5,44,0.00,,---,0.00,VWS V14.01,2013-02-15 13:14:00,
2013-02-15 05:19:00,41.7,20.9,28.64,SE,126,8.7,8.7,43,0.00,,---,0.00,VWS V14.01,2013-02-15 13:19:00,
2013-02-15 05:25:00,41.7,20.3,28.64,East,97,3.6,8.1,42,0.00,,---,0.00,VWS V14.01,2013-02-15 13:25:00,
2013-02-15 05:30:00,41.7,20.3,28.64,SSE,155,10.1,10.1,42,0.00,,---,0.00,VWS V14.01,2013-02-15 13:30:00,
2013-02-15 05:35:00,41.9,20.5,28.64,ESE,114,4.9,10.1,42,0.00,,---,0.00,VWS V14.01,2013-02-15 13:35:00,
2013-02-15 05:40:00,42.1,20.1,28.61,SE,135,6.3,7.2,41,0.00,,---,0.00,VWS V14.01,2013-02-15 13:40:00,
2013-02-15 05:46:00,42.3,19.7,28.61,ESE,104,5.8,8.1,40,0.00,,---,0.00,VWS V14.01,2013-02-15 13:46:00,
2013-02-15 05:51:00,42.1,19.5,28.61,SE,139,6.3,8.3,40,0.00,,---,0.00,VWS V14.01,2013-02-15 13:51:00,
2013-02-15 05:56:00,41.9,19.9,28.61,East,101,5.8,10.5,41,0.00,,---,0.00,VWS V14.01,2013-02-15 13:56:00,
2013-02-15 06:01:00,41.7,19.8,28.61,ESE,122,7.6,7.6,41,0.00,,---,0.00,VWS V14.01,2013-02-15 14:01:00,
2013-02-15 06:07:00,41.7,19.8,28.61,SE,126,5.4,10.1,41,0.00,,---,0.00,VWS V14.01,2013-02-15 14:07:00,
2013-02-15 06:12:00,41.7,19.8,28.61,SE,130,6.7,10.5,41,0.00,,---,0.00,VWS V14.01,2013-02-15 14:12:00,
2013-02-15 06:17:00,41.9,19.9,28.61,ESE,121,4.9,6.7,41,0.00,,---,0.00,VWS V14.01,2013-02-15 14:17:00,
2013-02-15 06:22:00,41.7,19.8,28.61,ESE,120,4.0,5.8,41,0.00,,---,0.00,VWS V14.01,2013-02-15 14:22:00,
2013-02-15 06:28:00,41.7,19.8,28.61,ESE,123,4.0,8.1,41,0.00,,---,0.00,VWS V14.01,2013-02-15 14:28:00,
2013-02-15 06:33:00,41.5,19.6,28.61,ESE,117,5.8,8.3,41,0.00,,---,0.00,VWS V14.01,2013-02-15 14:33:00,
2013-02-15 06:38:00,41.5,19.6,28.61,East,95,6.3,6.3,41,0.00,,---,0.00,VWS V14.01,2013-02-15 14:38:00,
2013-02-15 06:43:00,41.2,19.3,28.61,ESE,119,4.0,8.1,41,0.00,,---,0.00,VWS V14.01,2013-02-15 14:43:00,
2013-02-15 06:49:00,41.0,19.7,28.61,ENE,61,2.7,5.8,42,0.00,,---,0.00,VWS V14.01,2013-02-15 14:49:00,
2013-02-15 06:54:00,40.6,19.4,28.61,East,93,3.6,3.6,42,0.00,,---,0.00,VWS V14.01,2013-02-15 14:54:00,
2013-02-15 06:59:00,40.3,19.6,28.61,SSE,160,4.9,4.9,43,0.00,,---,0.00,VWS V14.01,2013-02-15 14:59:00,
2013-02-15 07:04:00,39.9,19.8,28.61,ENE,68,2.7,6.3,44,0.00,,---,0.00,VWS V14.01,2013-02-15 15:04:00,
2013-02-15 07:10:00,39.4,19.8,28.61,SE,132,3.1,6.3,45,0.00,,---,0.00,VWS V14.01,2013-02-15 15:10:00,
2013-02-15 07:15:00,39.2,20.7,28.61,East,92,7.6,7.6,47,0.00,,---,0.00,VWS V14.01,2013-02-15 15:15:00,
2013-02-15 07:20:00,39.4,21.3,28.61,SE,130,6.3,6.3,48,0.00,,---,0.00,VWS V14.01,2013-02-15 15:20:00,
2013-02-15 07:25:00,39.7,21.7,28.61,East,94,5.4,8.7,48,0.00,,---,0.00,VWS V14.01,2013-02-15 15:25:00,
2013-02-15 07:31:00,39.9,20.8,28.61,ESE,120,5.4,7.2,46,0.00,,---,0.00,VWS V14.01,2013-02-15 15:31:00,
2013-02-15 07:36:00,40.3,20.6,28.61,SE,134,3.1,6.3,45,0.00,,---,0.00,VWS V14.01,2013-02-15 15:36:00,
2013-02-15 07:41:00,40.5,20.3,28.61,SE,127,5.8,5.8,44,0.00,,---,0.00,VWS V14.01,2013-02-15 15:41:00,
2013-02-15 07:46:00,40.6,19.9,28.61,SSE,154,6.3,8.1,43,0.00,,---,0.00,VWS V14.01,2013-02-15 15:46:00,
2013-02-15 07:52:00,40.8,19.5,28.61,SE,125,3.6,8.7,42,0.00,,---,0.00,VWS V14.01,2013-02-15 15:52:00,
2013-02-15 07:57:00,41.2,19.3,28.61,SE,131,6.7,10.1,41,0.00,,---,0.00,VWS V14.01,2013-02-15 15:57:00,
2013-02-15 08:02:00,41.4,18.9,28.61,SSE,151,4.9,8.3,40,0.00,,---,0.00,VWS V14.01,2013-02-15 16:02:00,
2013-02-15 08:07:00,41.7,19.2,28.61,ESE,103,4.9,8.7,40,0.00,,---,0.00,VWS V14.01,2013-02-15 16:07:00,
2013-02-15 08:13:00,41.9,19.4,28.61,ESE,123,4.9,8.3,40,0.00,,---,0.00,VWS V14.01,2013-02-15 16:13:00,
2013-02-15 08:18:00,42.1,19.5,28.61,ESE,120,4.0,5.4,40,0.00,,---,0.00,VWS V14.01,2013-02-15 16:18:00,
2013-02-15 08:23:00,42.1,19.5,28.61,East,92,5.4,5.8,40,0.00,,---,0.00,VWS V14.01,2013-02-15 16:23:00,
2013-02-15 08:28:00,42.4,19.8,28.61,SSE,151,4.9,5.4,40,0.00,,---,0.00,VWS V14.01,2013-02-15 16:28:00,
2013-02-15 08:34:00,42.8,19.6,28.61,SSE,151,4.0,7.6,39,0.00,,---,0.00,VWS V14.01,2013-02-15 16:34:00,
2013-02-15 08:39:00,43.0,19.1,28.61,ESE,119,10.1,11.0,38,0.00,,---,0.00,VWS V14.01,2013-02-15 16:39:00,
2013-02-15 08:44:00,43.3,19.5,28.61,SSE,161,5.4,10.5,38,0.00,,---,0.00,VWS V14.01,2013-02-15 16:44:00,
2013-02-15 08:49:00,43.5,19.6,28.61,SE,137,2.7,8.7,38,0.00,,---,0.00,VWS V14.01,2013-02-15 16:49:00,
2013-02-15 08:55:00,43.5,19.6,28.61,SSE,166,4.0,8.7,38,0.00,,---,0.00,VWS V14.01,2013-02-15 16:55:00,
2013-02-15 09:00:00,43.2,19.3,28.61,ESE,110,2.7,3.1,38,0.00,,---,0.00,VWS V14.01,2013-02-15 17:00:00,
2013-02-15 09:05:00,42.4,19.2,28.61,ENE,73,0.0,3.1,39,0.00,,---,0.00,VWS V14.01,2013-02-15 17:05:00,
2013-02-15 09:11:00,42.1,19.5,28.61,NE,55,0.0,0.0,40,0.00,,---,0.00,VWS V14.01,2013-02-15 17:11:00,
2013-02-15 09:16:00,41.7,19.8,28.61,ENE,62,0.0,2.7,41,0.00,,---,0.00,VWS V14.01,2013-02-15 17:16:00,
2013-02-15 09:21:00,41.4,19.5,28.61,NE,47,0.0,0.0,41,0.00,,---,0.00,VWS V14.01,2013-02-15 17:21:00,
2013-02-15 09:26:00,41.2,19.9,28.61,NE,40,2.7,3.1,42,0.00,,---,0.00,VWS V14.01,2013-02-15 17:26:00,
2013-02-15 09:32:00,41.5,20.7,28.61,ENE,60,2.2,3.6,43,0.00,,---,0.00,VWS V14.01,2013-02-15 17:32:00,
2013-02-15 09:37:00,41.4,20.0,28.61,NNE,14,0.0,3.1,42,0.00,,---,0.00,VWS V14.01,2013-02-15 17:37:00,
2013-02-15 09:42:00,41.5,20.7,28.61,East,86,0.0,2.2,43,0.00,,---,0.00,VWS V14.01,2013-02-15 17:42:00,
2013-02-15 09:47:00,41.5,20.2,28.61,NE,47,2.2,4.0,42,0.00,,---,0.00,VWS V14.01,2013-02-15 17:47:00,
2013-02-15 09:53:00,42.1,21.8,28.61,NNE,30,0.0,2.7,44,0.00,,---,0.00,VWS V14.01,2013-02-15 17:53:00,
2013-02-15 09:58:00,42.4,21.0,28.61,NE,49,0.0,3.1,42,0.00,,---,0.00,VWS V14.01,2013-02-15 17:58:00,
2013-02-15 10:03:00,42.6,21.1,28.61,NE,47,2.2,2.7,42,0.00,,---,0.00,VWS V14.01,2013-02-15 18:03:00,
2013-02-15 10:08:00,43.3,21.2,28.59,NE,46,0.0,3.1,41,0.00,,---,0.00,VWS V14.01,2013-02-15 18:08:00,
2013-02-15 10:14:00,43.9,21.1,28.59,NNE,32,2.7,3.6,40,0.00,,---,0.00,VWS V14.01,2013-02-15 18:14:00,
2013-02-15 10:19:00,44.6,21.2,28.59,NE,54,0.0,3.1,39,0.00,,---,0.00,VWS V14.01,2013-02-15 18:19:00,
2013-02-15 10:24:00,45.5,21.4,28.59,ENE,60,0.0,3.1,38,0.00,,---,0.00,VWS V14.01,2013-02-15 18:24:00,
2013-02-15 10:30:00,46.6,21.7,28.59,ENE,66,0.0,4.0,37,0.00,,---,0.00,VWS V14.01,2013-02-15 18:30:00,
2013-02-15 10:35:00,46.6,21.1,28.59,ENE,69,3.6,4.0,36,0.00,,---,0.00,VWS V14.01,2013-02-15 18:35:00,
2013-02-15 10:40:00,46.8,21.2,28.59,East,94,2.7,3.6,36,0.00,,---,0.00,VWS V14.01,2013-02-15 18:40:00,
2013-02-15 10:45:00,47.1,20.2,28.59,East,101,2.7,3.1,34,0.00,,---,0.00,VWS V14.01,2013-02-15 18:45:00,
2013-02-15 10:51:00,48.2,20.5,28.59,East,83,2.7,2.7,33,0.00,,---,0.00,VWS V14.01,2013-02-15 18:51:00,
2013-02-15 10:56:00,49.1,19.8,28.59,ENE,61,3.6,3.6,31,0.00,,---,0.00,VWS V14.01,2013-02-15 18:56:00,
2013-02-15 11:01:00,49.1,19.8,28.59,ENE,64,3.6,3.6,31,0.00,,---,0.00,VWS V14.01,2013-02-15 19:01:00,
2013-02-15 11:06:00,48.9,18.9,28.59,NNE,23,2.7,3.1,30,0.00,,---,0.00,VWS V14.01,2013-02-15 19:06:00,
2013-02-15 11:12:00,48.7,19.5,28.59,NNE,31,3.1,4.0,31,0.00,,---,0.00,VWS V14.01,2013-02-15 19:12:00,
2013-02-15 11:17:00,48.6,19.3,28.59,East,90,0.0,2.7,31,0.00,,---,0.00,VWS V14.01,2013-02-15 19:17:00,
2013-02-15 11:22:00,48.7,19.5,28.59,North,5,2.2,4.0,31,0.00,,---,0.00,VWS V14.01,2013-02-15 19:22:00,
2013-02-15 11:27:00,48.7,19.5,28.59,NE,54,2.7,2.7,31,0.00,,---,0.00,VWS V14.01,2013-02-15 19:27:00,
2013-02-15 11:33:00,48.7,19.5,28.59,NNE,17,0.0,3.6,31,0.00,,---,0.00,VWS V14.01,2013-02-15 19:33:00,
2013-02-15 11:38:00,49.1,19.0,28.59,NNE,12,2.2,3.6,30,0.00,,---,0.00,VWS V14.01,2013-02-15 19:38:00,
2013-02-15 11:43:00,49.5,18.5,28.59,NNE,12,0.0,2.2,29,0.00,,---,0.00,VWS V14.01,2013-02-15 19:43:00,
2013-02-15 11:48:00,49.1,19.0,28.59,NNE,33,0.0,4.0,30,0.00,,---,0.00,VWS V14.01,2013-02-15 19:48:00,
2013-02-15 11:54:00,48.9,18.9,28.56,NNE,28,0.0,2.7,30,0.00,,---,0.00,VWS V14.01,2013-02-15 19:54:00,
2013-02-15 11:59:00,48.7,18.7,28.56,North,350,2.7,3.1,30,0.00,,---,0.00,VWS V14.01,2013-02-15 19:59:00,
2013-02-15 12:04:00,48.4,19.2,28.56,NNE,12,2.2,3.6,31,0.00,,---,0.00,VWS V14.01,2013-02-15 20:04:00,
2013-02-15 12:09:00,48.4,19.2,28.56,NNE,25,2.7,3.1,31,0.00,,---,0.00,VWS V14.01,2013-02-15 20:09:00,
2013-02-15 12:15:00,48.6,20.1,28.56,NE,35,0.0,2.2,32,0.00,,---,0.00,VWS V14.01,2013-02-15 20:15:00,
2013-02-15 12:20:00,48.9,20.4,28.56,NNE,32,0.0,0.0,32,0.00,,---,0.00,VWS V14.01,2013-02-15 20:20:00,
2013-02-15 12:25:00,48.7,19.5,28.56,NNW,348,2.7,2.7,31,0.00,,---,0.00,VWS V14.01,2013-02-15 20:25:00,
2013-02-15 12:30:00,48.9,18.9,28.56,North,10,0.0,3.1,30,0.00,,---,0.00,VWS V14.01,2013-02-15 20:30:00,
2013-02-15 12:36:00,49.1,20.5,28.56,North,0,0.0,3.1,32,0.00,,---,0.00,VWS V14.01,2013-02-15 20:36:00,
2013-02-15 12:41:00,48.9,22.5,28.56,ENE,75,2.2,2.7,35,0.00,,---,0.00,VWS V14.01,2013-02-15 20:41:00,
2013-02-15 12:46:00,49.1,22.0,28.56,North,357,3.1,3.1,34,0.00,,---,0.00,VWS V14.01,2013-02-15 20:46:00,
2013-02-15 12:52:00,49.1,22.6,28.56,North,357,0.0,2.7,35,0.00,,---,0.00,VWS V14.01,2013-02-15 20:52:00,
2013-02-15 12:57:00,49.5,23.6,28.56,NNW,338,2.7,2.7,36,0.00,,---,0.00,VWS V14.01,2013-02-15 20:57:00,
2013-02-15 13:02:00,49.8,24.0,28.56,NE,41,2.7,3.1,36,0.00,,---,0.00,VWS V14.01,2013-02-15 21:02:00,
2013-02-15 13:07:00,50.2,22.9,28.56,NE,48,2.2,3.1,34,0.00,,---,0.00,VWS V14.01,2013-02-15 21:07:00,
2013-02-15 13:13:00,50.4,22.4,28.53,NE,37,0.0,0.0,33,0.00,,---,0.00,VWS V14.01,2013-02-15 21:13:00,
2013-02-15 13:18:00,50.0,23.4,28.53,NNE,16,2.7,2.7,35,0.00,,---,0.00,VWS V14.01,2013-02-15 21:18:00,
2013-02-15 13:23:00,49.6,23.8,28.53,NNE,22,0.0,2.2,36,0.00,,---,0.00,VWS V14.01,2013-02-15 21:23:00,
2013-02-15 13:28:00,49.6,24.5,28.53,NNE,24,0.0,0.0,37,0.00,,---,0.00,VWS V14.01,2013-02-15 21:28:00,
2013-02-15 13:34:00,49.8,25.2,28.53,NNE,21,0.0,2.7,38,0.00,,---,0.00,VWS V14.01,2013-02-15 21:34:00,
2013-02-15 13:39:00,49.6,24.5,28.53,NNE,21,2.2,2.2,37,0.00,,---,0.00,VWS V14.01,2013-02-15 21:39:00,
2013-02-15 13:44:00,49.5,24.3,28.53,NNE,19,0.0,2.7,37,0.00,,---,0.00,VWS V14.01,2013-02-15 21:44:00,
2013-02-15 13:50:00,49.1,24.6,28.53,North,349,4.0,4.0,38,0.00,,---,0.00,VWS V14.01,2013-02-15 21:50:00,
2013-02-15 13:55:00,48.7,24.9,28.53,NNW,342,2.7,4.5,39,0.00,,---,0.00,VWS V14.01,2013-02-15 21:55:00,
2013-02-15 14:00:00,48.7,24.9,28.53,NNW,332,2.7,3.1,39,0.00,,---,0.00,VWS V14.01,2013-02-15 22:00:00,
2013-02-15 14:05:00,48.9,25.7,28.53,NW,325,0.0,0.0,40,0.00,,---,0.00,VWS V14.01,2013-02-15 22:05:00,
2013-02-15 14:11:00,49.1,26.4,28.53,North,357,0.0,3.1,41,0.00,,---,0.00,VWS V14.01,2013-02-15 22:11:00,
2013-02-15 14:16:00,49.3,26.0,28.53,North,0,3.1,3.1,40,0.00,,---,0.00,VWS V14.01,2013-02-15 22:16:00,
2013-02-15 14:21:00,49.6,25.7,28.53,North,357,0.0,0.0,39,0.00,,---,0.00,VWS V14.01,2013-02-15 22:21:00,
2013-02-15 14:26:00,49.5,25.5,28.53,NNW,339,3.6,3.6,39,0.00,,---,0.00,VWS V14.01,2013-02-15 22:26:00,
2013-02-15 14:32:00,49.3,25.4,28.53,NNW,339,0.0,0.0,39,0.00,,---,0.00,VWS V14.01,2013-02-15 22:32:00,
2013-02-15 14:37:00,49.1,25.2,28.53,South,184,2.2,3.6,39,0.00,,---,0.00,VWS V14.01,2013-02-15 22:37:00,
2013-02-15 14:42:00,49.1,25.8,28.53,SSE,157,2.7,3.6,40,0.00,,---,0.00,VWS V14.01,2013-02-15 22:42:00,
2013-02-15 14:47:00,48.9,26.3,28.53,South,169,2.2,3.1,41,0.00,,---,0.00,VWS V14.01,2013-02-15 22:47:00,
2013-02-15 14:53:00,48.7,26.1,28.53,South,181,0.0,4.0,41,0.00,,---,0.00,VWS V14.01,2013-02-15 22:53:00,
2013-02-15 14:58:00,48.7,26.1,28.50,SSE,164,0.0,2.2,41,0.00,,---,0.00,VWS V14.01,2013-02-15 22:58:00,
2013-02-15 15:03:00,48.7,26.7,28.50,SSE,164,0.0,0.0,42,0.00,,---,0.00,VWS V14.01,2013-02-15 23:03:00,
2013-02-15 15:08:00,48.9,26.9,28.50,SSE,164,2.2,2.7,42,0.00,,---,0.00,VWS V14.01,2013-02-15 23:08:00,
2013-02-15 15:14:00,49.3,26.6,28.50,SSE,164,0.0,2.2,41,0.00,,---,0.00,VWS V14.01,2013-02-15 23:14:00,
2013-02-15 15:19:00,49.3,26.6,28.50,SSE,164,0.0,0.0,41,0.00,,---,0.00,VWS V14.01,2013-02-15 23:19:00,
2013-02-15 15:24:00,49.1,26.4,28.50,SSE,164,0.0,0.0,41,0.00,,---,0.00,VWS V14.01,2013-02-15 23:24:00,
2013-02-15 15:30:00,49.1,27.0,28.50,SSE,164,0.0,0.0,42,0.00,,---,0.00,VWS V14.01,2013-02-15 23:30:00,
2013-02-15 15:35:00,49.1,27.0,28.50,SSE,164,0.0,0.0,42,0.00,,---,0.00,VWS V14.01,2013-02-15 23:35:00,
2013-02-15 15:40:00,49.3,27.2,28.50,SSE,163,0.0,0.0,42,0.00,,---,0.00,VWS V14.01,2013-02-15 23:40:00,
2013-02-15 15:45:00,49.1,27.0,28.50,South,189,0.0,0.0,42,0.00,,---,0.00,VWS V14.01,2013-02-15 23:45:00,
2013-02-15 15:51:00,48.7,26.7,28.50,South,172,3.1,3.1,42,0.00,,---,0.00,VWS V14.01,2013-02-15 23:51:00,
2013-02-15 15:56:00,48.4,26.4,28.50,SSW,199,0.0,2.7,42,0.00,,---,0.00,VWS V14.01,2013-02-15 23:56:00,
2013-02-15 16:01:00,48.2,26.2,28.50,SE,144,3.1,3.6,42,0.00,,---,0.00,VWS V14.01,2013-02-16 00:01:00,
2013-02-15 16:06:00,48.0,26.6,28.50,SE,144,0.0,0.0,43,0.00,,---,0.00,VWS V14.01,2013-02-16 00:06:00,
2013-02-15 16:12:00,47.8,27.0,28.50,SE,144,0.0,0.0,44,0.00,,---,0.00,VWS V14.01,2013-02-16 00:12:00,
2013-02-15 16:17:00,47.7,26.8,28.50,SE,144,0.0,0.0,44,0.00,,---,0.00,VWS V14.01,2013-02-16 00:17:00,
2013-02-15 16:23:00,47.5,27.2,28.50,SSE,155,0.0,3.1,45,0.00,,---,0.00,VWS V14.01,2013-02-16 00:23:00,
2013-02-15 16:29:00,47.3,27.0,28.50,SSE,155,0.0,0.0,45,0.00,,---,0.00,VWS V14.01,2013-02-16 00:29:00,
2013-02-15 16:34:00,47.3,27.6,28.50,SSE,155,0.0,0.0,46,0.00,,---,0.00,VWS V14.01,2013-02-16 00:34:00,
2013-02-15 16:39:00,47.3,28.1,28.50,SSE,154,0.0,0.0,47,0.00,,---,0.00,VWS V14.01,2013-02-16 00:39:00,
2013-02-15 16:44:00,47.1,27.9,28.50,SSE,155,0.0,2.7,47,0.00,,---,0.00,VWS V14.01,2013-02-16 00:44:00,
2013-02-15 16:50:00,46.8,27.6,28.50,SSE,155,0.0,0.0,47,0.00,,---,0.00,VWS V14.01,2013-02-16 00:50:00,
2013-02-15 16:55:00,46.6,27.5,28.50,SSE,155,0.0,0.0,47,0.00,,---,0.00,VWS V14.01,2013-02-16 00:55:00,
2013-02-15 17:00:00,46.8,28.1,28.50,SSE,155,0.0,0.0,48,0.00,,---,0.00,VWS V14.01,2013-02-16 01:00:00,
2013-02-15 17:05:00,46.9,28.8,28.50,SSE,155,0.0,0.0,49,0.00,,---,0.00,VWS V14.01,2013-02-16 01:05:00,
2013-02-15 17:11:00,46.9,28.8,28.50,SE,138,0.0,0.0,49,0.00,,---,0.00,VWS V14.01,2013-02-16 01:11:00,
2013-02-15 17:16:00,46.6,28.5,28.50,East,91,0.0,0.0,49,0.00,,---,0.00,VWS V14.01,2013-02-16 01:16:00,
2013-02-15 17:22:00,46.6,29.0,28.50,East,84,0.0,0.0,50,0.00,,---,0.00,VWS V14.01,2013-02-16 01:22:00,
2013-02-15 17:27:00,46.6,29.9,28.50,East,84,0.0,0.0,52,0.00,,---,0.00,VWS V14.01,2013-02-16 01:27:00,
2013-02-15 17:32:00,46.6,29.9,28.50,East,84,0.0,0.0,52,0.00,,---,0.00,VWS V14.01,2013-02-16 01:32:00,
2013-02-15 17:38:00,46.0,29.4,28.50,East,84,0.0,0.0,52,0.00,,---,0.00,VWS V14.01,2013-02-16 01:38:00,
2013-02-15 17:43:00,45.3,28.8,28.50,East,84,0.0,0.0,52,0.00,,---,0.00,VWS V14.01,2013-02-16 01:43:00,
2013-02-15 17:48:00,44.6,28.1,28.50,East,84,0.0,0.0,52,0.00,,---,0.00,VWS V14.01,2013-02-16 01:48:00,
2013-02-15 17:53:00,44.1,27.6,28.50,East,84,0.0,0.0,52,0.00,,---,0.00,VWS V14.01,2013-02-16 01:53:00,
2013-02-15 17:59:00,43.7,27.2,28.50,East,84,0.0,0.0,52,0.00,,---,0.00,VWS V14.01,2013-02-16 01:59:00,
2013-02-15 18:04:00,43.5,27.5,28.50,East,84,0.0,0.0,53,0.00,,---,0.00,VWS V14.01,2013-02-16 02:04:00,
2013-02-15 18:09:00,43.5,28.0,28.50,East,84,0.0,0.0,54,0.00,,---,0.00,VWS V14.01,2013-02-16 02:09:00,
2013-02-15 18:15:00,43.3,27.8,28.50,East,84,0.0,0.0,54,0.00,,---,0.00,VWS V14.01,2013-02-16 02:15:00,
2013-02-15 18:20:00,43.0,27.5,28.50,East,84,0.0,0.0,54,0.00,,---,0.00,VWS V14.01,2013-02-16 02:20:00,
2013-02-15 18:25:00,42.8,27.8,28.50,SE,132,0.0,0.0,55,0.00,,---,0.00,VWS V14.01,2013-02-16 02:25:00,
2013-02-15 18:30:00,42.4,28.3,28.50,SE,132,0.0,0.0,57,0.00,,---,0.00,VWS V14.01,2013-02-16 02:30:00,
2013-02-15 18:36:00,42.4,28.3,28.50,SE,132,0.0,0.0,57,0.00,,---,0.00,VWS V14.01,2013-02-16 02:36:00,
2013-02-15 18:41:00,42.4,28.7,28.50,SE,132,0.0,0.0,58,0.00,,---,0.00,VWS V14.01,2013-02-16 02:41:00,
2013-02-15 18:46:00,42.8,29.5,28.50,SE,132,0.0,0.0,59,0.00,,---,0.00,VWS V14.01,2013-02-16 02:46:00,
2013-02-15 18:51:00,42.8,29.5,28.50,SE,132,0.0,0.0,59,0.00,,---,0.00,VWS V14.01,2013-02-16 02:51:00,
2013-02-15 18:57:00,42.6,29.3,28.50,SE,132,0.0,0.0,59,0.00,,---,0.00,VWS V14.01,2013-02-16 02:57:00,
2013-02-15 19:02:00,42.6,29.7,28.50,SE,132,0.0,0.0,60,0.00,,---,0.00,VWS V14.01,2013-02-16 03:02:00,
2013-02-15 19:07:00,43.2,30.6,28.50,ENE,64,0.0,0.0,61,0.00,,---,0.00,VWS V14.01,2013-02-16 03:07:00,
2013-02-15 19:12:00,43.7,31.5,28.50,ENE,64,0.0,0.0,62,0.00,,---,0.00,VWS V14.01,2013-02-16 03:12:00,
2013-02-15 19:18:00,43.7,31.5,28.50,ENE,64,0.0,0.0,62,0.00,,---,0.00,VWS V14.01,2013-02-16 03:18:00,
2013-02-15 19:23:00,43.0,30.5,28.50,ENE,64,0.0,0.0,61,0.00,,---,0.00,VWS V14.01,2013-02-16 03:23:00,
2013-02-15 19:28:00,42.8,30.3,28.50,ENE,64,0.0,0.0,61,0.00,,---,0.00,VWS V14.01,2013-02-16 03:28:00,
2013-02-15 19:33:00,42.4,30.4,28.50,ENE,64,0.0,0.0,62,0.00,,---,0.00,VWS V14.01,2013-02-16 03:33:00,
2013-02-15 19:39:00,43.0,31.3,28.50,ENE,64,0.0,0.0,63,0.00,,---,0.00,VWS V14.01,2013-02-16 03:39:00,
2013-02-15 19:44:00,43.0,31.3,28.50,ENE,64,0.0,0.0,63,0.00,,---,0.00,VWS V14.01,2013-02-16 03:44:00,
2013-02-15 19:49:00,43.7,32.7,28.50,ENE,64,0.0,0.0,65,0.00,,---,0.00,VWS V14.01,2013-02-16 03:49:00,
2013-02-15 19:55:00,44.8,34.5,28.50,ENE,64,0.0,0.0,67,0.00,,---,0.00,VWS V14.01,2013-02-16 03:55:00,
2013-02-15 20:00:00,45.0,35.0,28.50,North,5,0.0,0.0,68,0.00,,---,0.00,VWS V14.01,2013-02-16 04:00:00,
2013-02-15 20:05:00,44.8,35.2,28.50,North,353,0.0,0.0,69,0.00,,---,0.00,VWS V14.01,2013-02-16 04:05:00,
2013-02-15 20:10:00,44.8,35.6,28.50,NNW,346,0.0,0.0,70,0.00,,---,0.00,VWS V14.01,2013-02-16 04:10:00,
2013-02-15 20:16:00,44.8,35.6,28.50,NNE,17,0.0,0.0,70,0.00,,---,0.00,VWS V14.01,2013-02-16 04:16:00,
2013-02-15 20:21:00,44.8,36.0,28.50,North,1,0.0,0.0,71,0.00,,---,0.00,VWS V14.01,2013-02-16 04:21:00,
2013-02-15 20:26:00,45.1,36.3,28.53,North,1,0.0,0.0,71,0.00,,---,0.00,VWS V14.01,2013-02-16 04:26:00,
2013-02-15 20:31:00,45.1,36.7,28.53,North,1,0.0,0.0,72,0.00,,---,0.00,VWS V14.01,2013-02-16 04:31:00,
2013-02-15 20:37:00,45.1,36.7,28.53,North,1,0.0,0.0,72,0.00,,---,0.00,VWS V14.01,2013-02-16 04:37:00,
2013-02-15 20:42:00,45.1,36.7,28.50,NW,319,0.0,0.0,72,0.00,,---,0.00,VWS V14.01,2013-02-16 04:42:00,
2013-02-15 20:47:00,45.1,36.3,28.50,NW,319,0.0,0.0,71,0.00,,---,0.00,VWS V14.01,2013-02-16 04:47:00,
2013-02-15 20:52:00,44.8,36.0,28.50,NE,51,0.0,0.0,71,0.00,,---,0.00,VWS V14.01,2013-02-16 04:52:00,
2013-02-15 20:58:00,45.1,36.3,28.50,NNE,21,3.1,3.1,71,0.00,,---,0.00,VWS V14.01,2013-02-16 04:58:00,
2013-02-15 21:00:00,45.1,36.3,28.50,South,191,0.0,3.1,71,0.00,,---,0.00,VWS V14.01,2013-02-16 05:00:00,
2013-02-15 21:01:00,45.1,36.7,28.50,ENE,69,0.0,0.0,72,0.00,,---,0.00,VWS V14.01,2013-02-16 05:01:00,
2013-02-15 21:06:00,45.5,37.0,28.50,ENE,65,0.0,0.0,72,0.00,,---,0.00,VWS V14.01,2013-02-16 05:06:00,
2013-02-15 21:09:00,45.5,36.7,28.50,ENE,65,0.0,0.0,71,0.00,,---,0.00,VWS V14.01,2013-02-16 05:09:00,
2013-02-15 21:15:00,45.3,35.8,28.50,ENE,65,0.0,0.0,69,0.00,,---,0.00,VWS V14.01,2013-02-16 05:15:00,
2013-02-15 21:20:00,45.1,35.2,28.50,ENE,65,0.0,0.0,68,0.00,,---,0.00,VWS V14.01,2013-02-16 05:20:00,
2013-02-15 21:24:00,45.1,34.5,28.53,ENE,65,0.0,0.0,66,0.00,,---,0.00,VWS V14.01,2013-02-16 05:24:00,
2013-02-15 21:29:00,44.8,33.0,28.53,ENE,65,0.0,0.0,63,0.00,,---,0.00,VWS V14.01,2013-02-16 05:29:00,
2013-02-15 21:34:00,44.8,32.6,28.53,ENE,65,0.0,0.0,62,0.00,,---,0.00,VWS V14.01,2013-02-16 05:34:00,
2013-02-15 21:40:00,44.8,32.2,28.53,ENE,65,0.0,0.0,61,0.00,,---,0.00,VWS V14.01,2013-02-16 05:40:00,
2013-02-15 21:45:00,44.2,30.8,28.53,ENE,65,0.0,0.0,59,0.00,,---,0.00,VWS V14.01,2013-02-16 05:45:00,
2013-02-15 21:50:00,44.2,28.2,28.53,SSW,199,0.0,0.0,53,0.00,,---,0.00,VWS V14.01,2013-02-16 05:50:00,
2013-02-15 21:55:00,44.2,26.8,28.53,SSW,211,0.0,0.0,50,0.00,,---,0.00,VWS V14.01,2013-02-16 05:55:00,
2013-02-15 22:01:00,44.4,25.0,28.53,SW,225,0.0,0.0,46,0.00,,---,0.00,VWS V14.01,2013-02-16 06:01:00,
2013-02-15 22:06:00,44.6,22.9,28.53,SW,222,0.0,2.7,42,0.00,,---,0.00,VWS V14.01,2013-02-16 06:06:00,
2013-02-15 22:11:00,44.6,22.4,28.53,South,190,0.0,0.0,41,0.00,,---,0.00,VWS V14.01,2013-02-16 06:11:00,
2013-02-15 22:16:00,44.4,22.2,28.53,South,190,0.0,0.0,41,0.00,,---,0.00,VWS V14.01,2013-02-16 06:16:00,
2013-02-15 22:22:00,44.2,21.5,28.53,South,190,0.0,0.0,40,0.00,,---,0.00,VWS V14.01,2013-02-16 06:22:00,
2013-02-15 22:27:00,44.4,21.0,28.53,South,190,0.0,0.0,39,0.00,,---,0.00,VWS V14.01,2013-02-16 06:27:00,
2013-02-15 22:32:00,44.4,20.4,28.53,South,190,0.0,0.0,38,0.00,,---,0.00,VWS V14.01,2013-02-16 06:32:00,
2013-02-15 22:38:00,44.2,20.3,28.53,South,190,0.0,0.0,38,0.00,,---,0.00,VWS V14.01,2013-02-16 06:38:00,
2013-02-15 22:43:00,44.2,19.0,28.53,South,190,0.0,0.0,36,0.00,,---,0.00,VWS V14.01,2013-02-16 06:43:00,
2013-02-15 22:48:00,44.6,18.7,28.53,South,190,0.0,0.0,35,0.00,,---,0.00,VWS V14.01,2013-02-16 06:48:00,
2013-02-15 22:53:00,44.8,17.5,28.53,South,190,0.0,0.0,33,0.00,,---,0.00,VWS V14.01,2013-02-16 06:53:00,
2013-02-15 22:59:00,44.6,17.3,28.53,South,190,0.0,0.0,33,0.00,,---,0.00,VWS V14.01,2013-02-16 06:59:00,
2013-02-15 23:04:00,44.1,17.5,28.53,South,190,0.0,0.0,34,0.00,,---,0.00,VWS V14.01,2013-02-16 07:04:00,
2013-02-15 23:09:00,45.0,16.9,28.53,South,190,0.0,0.0,32,0.00,,---,0.00,VWS V14.01,2013-02-16 07:09:00,
2013-02-15 23:14:00,45.1,17.1,28.53,South,190,0.0,0.0,32,0.00,,---,0.00,VWS V14.01,2013-02-16 07:14:00,
2013-02-15 23:20:00,45.3,17.2,28.53,South,190,0.0,0.0,32,0.00,,---,0.00,VWS V14.01,2013-02-16 07:20:00,
2013-02-15 23:25:00,45.1,16.3,28.53,NW,304,0.0,0.0,31,0.00,,---,0.00,VWS V14.01,2013-02-16 07:25:00,
2013-02-15 23:30:00,45.1,16.3,28.53,NW,304,0.0,0.0,31,0.00,,---,0.00,VWS V14.01,2013-02-16 07:30:00,
2013-02-15 23:35:00,45.1,15.6,28.53,NW,304,0.0,0.0,30,0.00,,---,0.00,VWS V14.01,2013-02-16 07:35:00,
2013-02-15 23:41:00,44.8,15.3,28.53,NW,304,0.0,0.0,30,0.00,,---,0.00,VWS V14.01,2013-02-16 07:41:00,
2013-02-15 23:46:00,44.4,14.9,28.53,NW,304,0.0,0.0,30,0.00,,---,0.00,VWS V14.01,2013-02-16 07:46:00,
2013-02-15 23:51:00,44.2,14.8,28.53,SSW,194,0.0,0.0,30,0.00,,---,0.00,VWS V14.01,2013-02-16 07:51:00,
2013-02-15 23:57:00,44.2,14.8,28.53,SSW,197,0.0,0.0,30,0.00,,---,0.00,VWS V14.01,2013-02-16 07:57:00,